• In Hungary
  • List of Countries
  • For 7 days
  • Water Temperature
  • Satellite Maps
  • Weather Map
  • News
  • Weather Widgets
  • user-avatar
    Login

    Hourly Weather Bolshaya Zvanica

    Today, 17 July, Tuesday

    Time Temperature Precipitation Wind Pressure Humidity
    00:00 +19°C° 0 mm 2 mps 745 mmHg 86%
    01:00 +18°C° 0 mm 2 mps 745 mmHg 88%
    02:00 +18°C° 0 mm 2 mps 745 mmHg 96%
    03:00 +18°C° 0 mm 2 mps 745 mmHg 93%
    04:00 +19°C° 0 mm 3 mps 745 mmHg 91%
    05:00 +19°C° 0 mm 3 mps 745 mmHg 88%
    06:00 +21°C° 0 mm 4 mps 745 mmHg 81%
    07:00 +23°C° 0 mm 4 mps 745 mmHg 73%
    08:00 +26°C° 0 mm 5 mps 745 mmHg 65%
    09:00 +27°C° 0 mm 5 mps 745 mmHg 61%
    10:00 +28°C° 0 mm 5 mps 745 mmHg 56%
    11:00 +29°C° 0 mm 5 mps 745 mmHg 52%
    12:00 +29°C° 0 mm 5 mps 744 mmHg 50%
    13:00 +29°C° 0 mm 5 mps 744 mmHg 47%
    14:00 +30°C° 0 mm 5 mps 744 mmHg 45%
    15:00 +29°C° 0 mm 5 mps 744 mmHg 47%
    16:00 +29°C° 0 mm 4 mps 744 mmHg 49%
    17:00 +29°C° 0 mm 4 mps 744 mmHg 52%
    18:00 +27°C° 0 mm 3 mps 743 mmHg 58%
    19:00 +25°C° 0 mm 3 mps 743 mmHg 64%
    20:00 +22°C° 0 mm 3 mps 743 mmHg 70%
    21:00 +21°C° 0 mm 3 mps 743 mmHg 70%
    22:00 +21°C° 0 mm 3 mps 743 mmHg 71%
    23:00 +20°C° 0 mm 3 mps 743 mmHg 71%

    Tomorrow, 18 July, Wednesday

    Time Temperature Precipitation Wind Pressure Humidity
    00:00 +20°C° 0 mm 3 mps 743 mmHg 71%
    01:00 +20°C° 0 mm 3 mps 743 mmHg 72%
    02:00 +19°C° 0 mm 3 mps 743 mmHg 73%
    03:00 +19°C° 0.1 mm 4 mps 743 mmHg 74%
    04:00 +19°C° 0.1 mm 4 mps 743 mmHg 76%
    05:00 +19°C° 0.1 mm 4 mps 743 mmHg 78%
    06:00 +20°C° 0.3 mm 4 mps 743 mmHg 74%
    07:00 +22°C° 0.3 mm 5 mps 743 mmHg 70%
    08:00 +23°C° 0.3 mm 5 mps 743 mmHg 66%
    09:00 +25°C° 0 mm 5 mps 742 mmHg 62%
    10:00 +26°C° 0 mm 5 mps 742 mmHg 57%
    11:00 +27°C° 0 mm 5 mps 742 mmHg 53%
    12:00 +27°C° 0.6 mm 5 mps 742 mmHg 58%
    13:00 +27°C° 0.6 mm 5 mps 741 mmHg 64%
    14:00 +27°C° 0.6 mm 5 mps 741 mmHg 69%
    15:00 +26°C° 1 mm 4 mps 741 mmHg 74%
    16:00 +25°C° 1 mm 4 mps 741 mmHg 79%
    17:00 +24°C° 1 mm 3 mps 741 mmHg 84%
    18:00 +22°C° 0.3 mm 3 mps 741 mmHg 86%
    19:00 +21°C° 0.3 mm 3 mps 741 mmHg 88%
    20:00 +20°C° 0.3 mm 3 mps 741 mmHg 90%
    21:00 +20°C° 0.3 mm 3 mps 741 mmHg 91%
    22:00 +19°C° 0.3 mm 3 mps 741 mmHg 92%
    23:00 +19°C° 0.3 mm 3 mps 741 mmHg 93%

    Day after tomorrow, 19 July, Thursday

    Time Temperature Precipitation Wind Pressure Humidity
    00:00 +19°C° 0.1 mm 3 mps 741 mmHg 93%
    01:00 +19°C° 0.1 mm 3 mps 741 mmHg 93%
    02:00 +18°C° 0.1 mm 3 mps 741 mmHg 93%
    03:00 +18°C° 0 mm 3 mps 741 mmHg 93%
    04:00 +19°C° 0 mm 4 mps 741 mmHg 92%
    05:00 +19°C° 0 mm 4 mps 741 mmHg 91%
    06:00 +20°C° 0 mm 4 mps 741 mmHg 87%
    07:00 +21°C° 0 mm 4 mps 741 mmHg 83%
    08:00 +22°C° 0 mm 4 mps 741 mmHg 78%
    09:00 +22°C° 0 mm 4 mps 741 mmHg 76%
    10:00 +23°C° 0 mm 4 mps 741 mmHg 73%
    11:00 +25°C° 0 mm 4 mps 741 mmHg 71%
    12:00 +25°C° 0.5 mm 4 mps 741 mmHg 74%
    13:00 +25°C° 0.5 mm 4 mps 741 mmHg 78%
    14:00 +25°C° 0.5 mm 4 mps 741 mmHg 81%
    15:00 +25°C° 0.5 mm 4 mps 741 mmHg 81%
    16:00 +25°C° 0.5 mm 4 mps 741 mmHg 82%
    17:00 +25°C° 0.5 mm 4 mps 741 mmHg 82%
    18:00 +23°C° 0.1 mm 4 mps 741 mmHg 85%
    19:00 +22°C° 0.1 mm 3 mps 741 mmHg 87%
    20:00 +21°C° 0.1 mm 3 mps 741 mmHg 89%
    21:00 +21°C° 0.8 mm 3 mps 741 mmHg 91%
    22:00 +20°C° 0.8 mm 3 mps 741 mmHg 93%
    23:00 +20°C° 0.8 mm 3 mps 741 mmHg 94%

    20 July, Friday

    Time Temperature Precipitation Wind Pressure Humidity
    00:00 +20°C° 0 mm 3 mps 741 mmHg 95%
    01:00 +20°C° 0 mm 3 mps 741 mmHg 96%
    02:00 +19°C° 0 mm 3 mps 741 mmHg 97%
    03:00 +19°C° 0 mm 4 mps 741 mmHg 96%
    04:00 +19°C° 0 mm 4 mps 742 mmHg 95%
    05:00 +19°C° 0 mm 4 mps 742 mmHg 95%
    06:00 +19°C° 0.1 mm 4 mps 742 mmHg 94%
    07:00 +20°C° 0.1 mm 4 mps 742 mmHg 93%
    08:00 +20°C° 0.1 mm 4 mps 742 mmHg 93%
    09:00 +20°C° 0.1 mm 4 mps 742 mmHg 91%
    10:00 +20°C° 0.1 mm 4 mps 742 mmHg 90%
    11:00 +20°C° 0.1 mm 4 mps 742 mmHg 89%
    12:00 +21°C° 0 mm 4 mps 742 mmHg 86%
    13:00 +21°C° 0 mm 4 mps 742 mmHg 83%
    14:00 +22°C° 0 mm 4 mps 742 mmHg 80%
    15:00 +22°C° 0 mm 4 mps 742 mmHg 79%
    16:00 +22°C° 0 mm 3 mps 742 mmHg 77%
    17:00 +22°C° 0 mm 3 mps 742 mmHg 75%
    18:00 +21°C° 0 mm 3 mps 742 mmHg 80%
    19:00 +21°C° 0 mm 2 mps 742 mmHg 84%
    20:00 +20°C° 0 mm 2 mps 742 mmHg 89%
    21:00 +19°C° 0 mm 2 mps 741 mmHg 91%
    22:00 +19°C° 0 mm 2 mps 741 mmHg 93%
    23:00 +18°C° 0 mm 2 mps 741 mmHg 95%

    21 July, Saturday

    Time Temperature Precipitation Wind Pressure Humidity
    00:00 +18°C° 0 mm 2 mps 741 mmHg 96%
    01:00 +18°C° 0 mm 2 mps 741 mmHg 97%
    02:00 +18°C° 0 mm 2 mps 741 mmHg 98%
    03:00 +18°C° 0.1 mm 2 mps 741 mmHg 98%
    04:00 +18°C° 0.1 mm 2 mps 741 mmHg 98%
    05:00 +18°C° 0.1 mm 2 mps 741 mmHg 97%
    06:00 +19°C° 0.1 mm 2 mps 740 mmHg 96%
    07:00 +19°C° 0.1 mm 2 mps 740 mmHg 95%
    08:00 +20°C° 0.1 mm 3 mps 740 mmHg 95%
    09:00 +20°C° 0 mm 3 mps 740 mmHg 93%
    10:00 +21°C° 0 mm 2 mps 740 mmHg 92%
    11:00 +21°C° 0 mm 2 mps 740 mmHg 91%
    12:00 +23°C° 0 mm 2 mps 740 mmHg 88%
    13:00 +23°C° 0 mm 2 mps 740 mmHg 85%
    14:00 +24°C° 0 mm 2 mps 740 mmHg 82%
    15:00 +25°C° 0 mm 2 mps 740 mmHg 81%
    16:00 +26°C° 0 mm 2 mps 740 mmHg 79%
    17:00 +26°C° 0 mm 2 mps 739 mmHg 78%
    18:00 +25°C° 0.2 mm 2 mps 739 mmHg 83%
    19:00 +24°C° 0.2 mm 2 mps 739 mmHg 89%
    20:00 +23°C° 0.2 mm 2 mps 739 mmHg 94%
    21:00 +23°C° 0.8 mm 2 mps 739 mmHg 95%
    22:00 +21°C° 0.8 mm 2 mps 739 mmHg 96%
    23:00 +21°C° 0.8 mm 2 mps 739 mmHg 98%

    22 July, Sunday

    Time Temperature Precipitation Wind Pressure Humidity
    00:00 +20°C° 0 mm 2 mps 739 mmHg 98%
    01:00 +20°C° 0 mm 2 mps 739 mmHg 98%
    02:00 +20°C° 0 mm 2 mps 739 mmHg 98%
    03:00 +20°C° 0 mm 2 mps 739 mmHg 98%
    04:00 +20°C° 0 mm 2 mps 739 mmHg 97%
    05:00 +20°C° 0 mm 2 mps 739 mmHg 97%
    06:00 +23°C° 0 mm 2 mps 739 mmHg 92%
    07:00 +24°C° 0 mm 2 mps 739 mmHg 86%
    08:00 +26°C° 0 mm 3 mps 739 mmHg 81%
    09:00 +27°C° 0.2 mm 3 mps 739 mmHg 75%
    10:00 +28°C° 0.2 mm 3 mps 738 mmHg 68%
    11:00 +29°C° 0.2 mm 3 mps 738 mmHg 61%
    12:00 +29°C° 1 mm 3 mps 738 mmHg 66%
    13:00 +29°C° 1 mm 4 mps 738 mmHg 70%
    14:00 +28°C° 1 mm 4 mps 738 mmHg 75%
    15:00 +28°C° 0.3 mm 3 mps 738 mmHg 74%
    16:00 +28°C° 0.3 mm 3 mps 738 mmHg 72%
    17:00 +28°C° 0.3 mm 3 mps 738 mmHg 71%
    18:00 +26°C° 0.5 mm 3 mps 738 mmHg 77%
    19:00 +25°C° 0.5 mm 2 mps 737 mmHg 84%
    20:00 +23°C° 0.5 mm 2 mps 737 mmHg 90%
    21:00 +23°C° 0.3 mm 2 mps 737 mmHg 92%
    22:00 +21°C° 0.3 mm 2 mps 737 mmHg 93%
    23:00 +20°C° 0.3 mm 2 mps 737 mmHg 95%
    Show more